Weather Roundup
Issued by NWS

Home | Current Version | Previous Version | Text Only | Print | Product List | Glossary On
Versions: 1 2 3 4 5 6 7 8 9 10 11 12 13 14 15 16 17 18 19 20 21 22 23 24 25 26 27 28 29 30 31 32 33 34 35 36 37 38 39 40 41 42 43 44 45 46 47 48 49 50
000
NZUS93 KARX 191910
HRRWXR

CURRENT HOURLY OBSERVATIONS ACROSS
MUCH OF THE UPPER MISSISSIPPI VALLEY
NATIONAL WEATHER SERVICE LA CROSSE WI
200 PM CDT FRI SEP 19 2014


...SOUTHEAST MINNESOTA...


CITY           SKY/WX    TMP DP  RH WIND       PRES   REMARKS
ROCHESTER      SUNNY     73  58  59 S25G39    29.80F
ROCHESTER/MAYO   N/A     73  55  53 SE23G36   29.79F VSB 1
WINONA         MOSUNNY   73  55  53 S14G21    29.83F
AUSTIN         MOSUNNY   73  61  64 S23G35    29.80F
ALBERT LEA     SUNNY     79  61  53 S18G29    29.78F
DODGE CENTER   SUNNY     73  61  64 S30G38    29.78F
PRESTON        MOSUNNY   71  61  70 S20G36    29.87F
OWATONNA       SUNNY     77  61  57 S18G35    29.74F
FARIBAULT      SUNNY     81  55  41 S21G32    29.72F
$$

...ELSEWHERE IN MINNESOTA...


CITY           SKY/WX    TMP DP  RH WIND       PRES   REMARKS
MINNEAPOLIS    CLOUDY    75  60  59 S18G24    29.70F
INTNL FALLS    RAIN      60  59  96 SW8       29.58F FOG
DULUTH         CLOUDY    63  55  75 SW16G25   29.69F
RED WING       SUNNY     75  57  53 S14G22    29.75F
REDWOOD FALLS  CLOUDY    75  63  66 SW9       29.70F
MANKATO        SUNNY     81  61  50 S26G35    29.68F
WORTHINGTON    SUNNY     79  64  61 S23G33    29.71F
FAIRMONT       SUNNY     81  57  44 S28G33    29.72F
$$

...SOUTHWEST WISCONSIN...


CITY           SKY/WX    TMP DP  RH WIND       PRES   REMARKS
LA CROSSE      SUNNY     75  56  51 S23G30    29.87F
PRAIRIE DU CHI SUNNY     74  51  44 S15G22    29.94F
BOSCOBEL       SUNNY     76  54  46 S15G25    29.96F
LONE ROCK      SUNNY     76  53  44 S21       29.97F
PLATTEVILLE    SUNNY     73  53  51 S20G25    30.01F
FORT MC COY    MOSUNNY   71  52  50 S16G24    29.92S
CAMP DOUGLAS   PTSUNNY   72  54  53 S21G31    29.92F
VIROQUA        FAIR      71  55  55 S16G26    29.95S
WIS DELLS      SUNNY     73  50  44 SW22      29.96F
$$

...ELSEWHERE IN WISCONSIN...


CITY           SKY/WX    TMP DP  RH WIND       PRES   REMARKS
MILWAUKEE      MOSUNNY   73  50  44 S14       30.05F
MADISON        MOSUNNY   73  50  44 S17G29    30.00F
GREEN BAY      PTSUNNY   72  52  49 S14G26    29.96F
EAU CLAIRE     PTSUNNY   72  56  57 S24G33    29.79F
BLACK RVR FLS  FAIR      73  53  48 S14G23    29.87F
MEDFORD        MOSUNNY   66  53  63 S18G30    29.85F
WAUSAU         MOSUNNY   70  50  49 S21G30    29.88F
WIS RAPIDS     SUNNY     71  53  52 SW16G24   29.93F
MARSHFIELD     MOSUNNY   70  54  56 S17G29    29.89F
RICE LAKE      PTSUNNY   69  55  60 S17G28    29.78F
$$

...NORTHEAST IOWA...


CITY           SKY/WX    TMP DP  RH WIND       PRES   REMARKS
WATERLOO       PTSUNNY   75  59  57 S20G30    29.91F
DUBUQUE        SUNNY     72  52  49 S20       30.01F
DECORAH        PTSUNNY   72  57  60 S13G28    29.91F
MASON CITY     SUNNY     78  62  57 S24G35    29.83F
CHARLES CITY   SUNNY     75  59  57 S18G31    29.88F
OELWEIN        PTSUNNY   73  57  56 S22G32    29.94F
$$

...ELSEWHERE IN IOWA...


CITY           SKY/WX    TMP DP  RH WIND       PRES   REMARKS
DES MOINES     PTSUNNY   79  63  57 S17       29.92F
IOWA CITY      MOSUNNY   74  57  55 S16G24    30.01F
FORT DODGE     SUNNY     81  64  57 S18G30    29.84F
MARSHALLTOWN   MOSUNNY   76  61  59 S24G30    29.91F
CEDAR RAPIDS   MOSUNNY   73  58  59 S15G26    29.98F
$$

...NORTHERN ILLINOIS...


CITY           SKY/WX    TMP DP  RH WIND       PRES   REMARKS
CHICAGO-OHARE  MOSUNNY   73  46  38 S20G26    30.08F
DUPAGE         SUNNY     74  48  39 S16G23    30.08F
CHICAGO-MIDWAY MOSUNNY   74  46  36 S13G23    30.09F
MOLINE         SUNNY     74  52  46 S13G21    30.02F
ROCKFORD       MOSUNNY   74  49  41 S21G31    30.05F
STERLING       SUNNY     75  50  41 S9G16     30.04F
PEORIA         SUNNY     76  53  44 SE10      30.06F
$$

NOTE: "FAIR" INDICATES FEW OR NO CLOUDS BELOW 12,000 FEET WITH NO
SIGNIFICANT WEATHER AND/OR OBSTRUCTIONS TO VISIBILITY. WIND
SPEEDS ARE IN MILES-PER-HOUR.



USA.gov is the U.S. government's official web portal to all federal, state and local government web resources and services.